Back to catalog

STARLINK-37003

AliveCommunicationsVLEO
NORAD 68170·PAYLOAD·🇺🇸 United States

Launched Mar 14, 2026 from Vandenberg Space Force Base

Loading…

Next Passes (next 24 hours)

TLE

FreshSource: CelesTrak SupGP

Epoch: Sep 14, 2026, 15:16 UTC

1 68170C 26050D   26257.63659722  .00000783  00000+0  23120-4 0  2573
2 68170  53.1572 104.8615 0001167  93.1951 197.3471 15.34395917    15

Track STARLINK-37003 in real time with AllMySat

Download on the App Store